FUNCUBE-1 (AO-73)

Last updated on Sun Jun 21 2026 00:03:20 GMT+0000 (Coordinated Universal Time)

1 39444U 13066AE 26171.43726984 .00004737 00000+0 29523-3 0 9994 2 39444 97.8276 142.9507 0035961 189.5491 170.5058 15.09520967680154
UTC large
Height (km)
Speed (km/s)
/
Latitude / Longitude
Inclination (degrees)
Orbital Period (minutes)
Azimuth
Elevation
Range (km)
Doppler Factor

Next 0 passes for location: London (51.5072 / 0.1276)

No passes found over London.
FUNCUBE-1 (AO-73)